{"data":{"norad_id":51963,"epoch":"2026-09-19T10:53:09.661056Z","epoch_age_seconds":145810,"freshness":"FRESH","line1":"1 51963U 22025H   26262.45358404  .00000042  00000+0  13117-4 0  9998","line2":"2 51963  53.1607 191.8151 0001365  95.6414 264.4743 15.31698282250864","mean_motion":15.31698282,"eccentricity":0.0001365,"inclination_deg":53.1607,"raan_deg":191.8151,"arg_perigee_deg":95.6414,"mean_anomaly_deg":264.4743,"bstar":1.3117e-5,"rev_number":25086,"period_min":94.013293409178,"perigee_km":469.81024409013,"apogee_km":471.67998890794,"semimajor_km":6848.882116499,"source":"CELESTRAK","updated_at":"2026-09-20T09:00:39.976256Z"}}